DLH7EC EDDF-EDDM

Flight info

Callsign DLH7EC
Flight time 0h 32m
Altitude 23000
Route CINDY8S/18 CINDY Z74 HAREM T104 ROKIL ROKIL1A
Aircraft A320/M-SDE3FGHIRWY/LB1

Departure

Time 2026-05-01 12:37
Airport Frankfurt Main Airport (EDDF)

Arrival

Time 2026-05-01 13:09
Airport Munich Airport (EDDM)
Time Latitude Longitude Altitude Speed Heading
2026-05-01 12:10 50.04900 8.58797 362 ft 0 kts 160°
2026-05-01 12:25 50.04914 8.58788 366 ft 4 kts 160°
2026-05-01 12:26 50.04935 8.58776 364 ft 3 kts 160°
2026-05-01 12:26 50.04977 8.58792 367 ft 3 kts 249°
2026-05-01 12:26 50.04984 8.58819 364 ft 0 kts 249°
2026-05-01 12:28 50.04939 8.58681 365 ft 13 kts 210°
2026-05-01 12:29 50.04848 8.58706 366 ft 15 kts 159°
2026-05-01 12:29 50.04771 8.58652 365 ft 14 kts 248°
2026-05-01 12:29 50.04633 8.58400 366 ft 22 kts 250°
2026-05-01 12:30 50.04497 8.57829 367 ft 29 kts 249°
2026-05-01 12:30 50.04428 8.57540 365 ft 28 kts 250°
2026-05-01 12:30 50.04360 8.57256 367 ft 28 kts 249°
2026-05-01 12:31 50.04291 8.56967 367 ft 28 kts 250°
2026-05-01 12:31 50.04221 8.56674 368 ft 30 kts 249°
2026-05-01 12:31 50.04149 8.56372 367 ft 30 kts 250°
2026-05-01 12:31 50.04085 8.56102 368 ft 25 kts 250°
2026-05-01 12:32 50.04028 8.55864 367 ft 22 kts 250°
2026-05-01 12:32 50.03914 8.55389 364 ft 27 kts 249°
2026-05-01 12:32 50.03847 8.55109 367 ft 28 kts 249°
2026-05-01 12:33 50.03778 8.54821 366 ft 29 kts 250°
2026-05-01 12:33 50.03710 8.54533 365 ft 28 kts 249°
2026-05-01 12:33 50.03644 8.54258 366 ft 27 kts 250°
2026-05-01 12:33 50.03579 8.53985 364 ft 27 kts 250°
2026-05-01 12:34 50.03515 8.53717 365 ft 25 kts 250°
2026-05-01 12:34 50.03457 8.53477 367 ft 22 kts 250°
2026-05-01 12:34 50.03408 8.53267 364 ft 19 kts 250°
2026-05-01 12:34 50.03366 8.53094 364 ft 16 kts 249°
2026-05-01 12:35 50.03329 8.52941 370 ft 14 kts 250°
2026-05-01 12:35 50.03298 8.52810 368 ft 12 kts 250°
2026-05-01 12:35 50.03272 8.52695 368 ft 11 kts 252°
2026-05-01 12:35 50.03242 8.52605 366 ft 9 kts 213°
2026-05-01 12:36 50.03195 8.52595 365 ft 0 kts 179°
2026-05-01 12:36 50.03193 8.52595 365 ft 3 kts 179°
2026-05-01 12:36 50.02954 8.52598 364 ft 73 kts 179°
2026-05-01 12:36 50.02226 8.52605 368 ft 134 kts 180°
2026-05-01 12:37 50.01138 8.52613 538 ft 167 kts 175°
2026-05-01 12:37 49.99999 8.52651 1418 ft 162 kts 173°
2026-05-01 12:37 49.98817 8.52670 2144 ft 181 kts 174°
2026-05-01 12:37 49.97522 8.52798 2714 ft 192 kts 163°
2026-05-01 12:38 49.96334 8.53797 3182 ft 205 kts 132°
2026-05-01 12:38 49.95524 8.55740 3654 ft 227 kts 117°
2026-05-01 12:38 49.94773 8.58029 4221 ft 246 kts 117°
2026-05-01 12:38 49.93986 8.60443 5176 ft 254 kts 118°
2026-05-01 12:39 49.93179 8.62916 6196 ft 259 kts 118°
2026-05-01 12:39 49.92373 8.65384 7144 ft 264 kts 118°
2026-05-01 12:39 49.91538 8.67937 8054 ft 268 kts 118°
2026-05-01 12:39 49.90687 8.70535 8999 ft 272 kts 118°
2026-05-01 12:40 49.89824 8.73160 9899 ft 275 kts 118°
2026-05-01 12:40 49.89245 8.74918 10458 ft 278 kts 118°
2026-05-01 12:40 49.88328 8.77697 10810 ft 302 kts 118°
2026-05-01 12:40 49.87343 8.80679 11318 ft 316 kts 117°
2026-05-01 12:41 49.86332 8.83736 12084 ft 321 kts 117°
2026-05-01 12:41 49.85309 8.86829 12895 ft 324 kts 117°
2026-05-01 12:41 49.84275 8.89948 13699 ft 328 kts 116°
2026-05-01 12:41 49.83224 8.93115 14460 ft 332 kts 117°
2026-05-01 12:42 49.82159 8.96320 15165 ft 336 kts 116°
2026-05-01 12:42 49.81086 8.99547 15856 ft 339 kts 116°
2026-05-01 12:42 49.79999 9.02818 16549 ft 343 kts 116°
2026-05-01 12:42 49.78902 9.06109 17223 ft 346 kts 116°
2026-05-01 12:43 49.77791 9.09432 17928 ft 350 kts 116°
2026-05-01 12:43 49.76668 9.12792 18595 ft 353 kts 116°
2026-05-01 12:43 49.75536 9.16187 19172 ft 357 kts 116°
2026-05-01 12:43 49.74238 9.19472 19736 ft 361 kts 126°
2026-05-01 12:44 49.72602 9.22447 20295 ft 365 kts 130°
2026-05-01 12:44 49.70915 9.25414 20861 ft 369 kts 129°
2026-05-01 12:44 49.67506 9.31444 21945 ft 376 kts 129°
2026-05-01 12:45 49.64025 9.37595 22999 ft 384 kts 129°
2026-05-01 12:45 49.62256 9.40705 23294 ft 387 kts 129°
2026-05-01 12:45 49.60453 9.43876 23349 ft 401 kts 129°
2026-05-01 12:46 49.58592 9.47147 23346 ft 409 kts 129°
2026-05-01 12:46 49.56703 9.50461 23349 ft 412 kts 129°
2026-05-01 12:46 49.54813 9.53775 23349 ft 412 kts 129°
2026-05-01 12:46 49.52919 9.57096 23349 ft 413 kts 129°
2026-05-01 12:47 49.51024 9.60416 23349 ft 413 kts 129°
2026-05-01 12:47 49.49126 9.63732 23351 ft 413 kts 130°
2026-05-01 12:47 49.47251 9.66997 23351 ft 413 kts 130°
2026-05-01 12:47 49.45322 9.70352 23355 ft 413 kts 129°
2026-05-01 12:48 49.43448 9.73616 23355 ft 413 kts 129°
2026-05-01 12:48 49.41547 9.76925 23354 ft 413 kts 129°
2026-05-01 12:48 49.39641 9.80233 23354 ft 413 kts 129°
2026-05-01 12:48 49.37737 9.83534 23350 ft 413 kts 129°
2026-05-01 12:49 49.35834 9.86835 23349 ft 413 kts 129°
2026-05-01 12:49 49.33925 9.90142 23344 ft 413 kts 129°
2026-05-01 12:49 49.32016 9.93441 23345 ft 414 kts 130°
2026-05-01 12:49 49.30106 9.96729 23344 ft 414 kts 130°
2026-05-01 12:50 49.28185 10.00023 23343 ft 414 kts 130°
2026-05-01 12:50 49.26268 10.03302 23341 ft 414 kts 129°
2026-05-01 12:50 49.24352 10.06584 23343 ft 414 kts 130°
2026-05-01 12:50 49.22431 10.09871 23344 ft 414 kts 130°
2026-05-01 12:51 49.20516 10.13149 23345 ft 414 kts 129°
2026-05-01 12:51 49.18599 10.16433 23347 ft 414 kts 129°
2026-05-01 12:51 49.14764 10.22992 23355 ft 414 kts 130°
2026-05-01 12:52 49.12833 10.26245 23358 ft 414 kts 130°
2026-05-01 12:52 49.08874 10.32652 23363 ft 415 kts 131°
2026-05-01 12:52 49.06871 10.35827 23366 ft 415 kts 131°
2026-05-01 12:53 49.02875 10.42160 23196 ft 413 kts 131°
2026-05-01 12:53 49.00900 10.45312 22557 ft 409 kts 131°
2026-05-01 12:53 48.98947 10.48435 21976 ft 405 kts 131°
2026-05-01 12:54 48.97016 10.51515 21427 ft 400 kts 131°
2026-05-01 12:54 48.93209 10.57580 20351 ft 392 kts 131°
2026-05-01 12:54 48.91335 10.60563 19823 ft 388 kts 131°
2026-05-01 12:55 48.87635 10.66441 18828 ft 381 kts 131°
2026-05-01 12:55 48.85808 10.69335 18290 ft 378 kts 131°
2026-05-01 12:55 48.83995 10.72201 17724 ft 375 kts 131°
2026-05-01 12:56 48.82194 10.75046 17181 ft 373 kts 131°
2026-05-01 12:56 48.80431 10.77833 16656 ft 370 kts 131°
2026-05-01 12:56 48.78651 10.80641 16167 ft 368 kts 131°
2026-05-01 12:56 48.76880 10.83428 15681 ft 365 kts 131°
2026-05-01 12:57 48.75120 10.86192 15190 ft 364 kts 131°
2026-05-01 12:57 48.71618 10.91660 14227 ft 360 kts 131°
2026-05-01 12:57 48.69878 10.94373 13713 ft 358 kts 131°
2026-05-01 12:58 48.68158 10.97062 13205 ft 355 kts 132°
2026-05-01 12:58 48.66446 10.99735 12719 ft 352 kts 131°
2026-05-01 12:58 48.64750 11.02375 12206 ft 349 kts 131°
2026-05-01 12:59 48.61394 11.07583 11230 ft 343 kts 132°
2026-05-01 12:59 48.59749 11.10126 11019 ft 333 kts 132°
2026-05-01 12:59 48.56379 11.14527 10775 ft 311 kts 144°
2026-05-01 13:00 48.52913 11.18053 10526 ft 290 kts 143°
2026-05-01 13:00 48.51269 11.19725 10350 ft 284 kts 143°
2026-05-01 13:01 48.48159 11.23284 9685 ft 276 kts 138°
2026-05-01 13:01 48.46691 11.25124 9104 ft 274 kts 137°
2026-05-01 13:01 48.43795 11.28774 7848 ft 269 kts 138°
2026-05-01 13:02 48.42362 11.30557 7311 ft 266 kts 138°
2026-05-01 13:07 48.35589 11.67949 2706 ft 136 kts 85°
2026-05-01 13:07 48.35699 11.69357 2529 ft 135 kts 82°
2026-05-01 13:07 48.35808 11.70751 2321 ft 136 kts 84°
2026-05-01 13:08 48.35919 11.72154 2096 ft 134 kts 82°
2026-05-01 13:08 48.36029 11.73536 1890 ft 132 kts 83°
2026-05-01 13:08 48.36137 11.74925 1765 ft 134 kts 83°
2026-05-01 13:08 48.36242 11.76316 1576 ft 134 kts 84°
2026-05-01 13:09 48.36346 11.77669 1486 ft 118 kts 83°
2026-05-01 13:09 48.36420 11.78624 1485 ft 67 kts 83°
2026-05-01 13:09 48.36453 11.79092 1473 ft 30 kts 89°
2026-05-01 13:09 48.36424 11.79339 1477 ft 22 kts 108°
2026-05-01 13:10 48.36369 11.79543 1482 ft 21 kts 116°
2026-05-01 13:10 48.36313 11.79732 1479 ft 13 kts 112°
2026-05-01 13:10 48.36240 11.79749 1476 ft 13 kts 233°
2026-05-01 13:10 48.36226 11.79627 1485 ft 11 kts 264°
2026-05-01 13:11 48.36217 11.79520 1484 ft 10 kts 258°
2026-05-01 13:11 48.36173 11.79466 1475 ft 9 kts 185°
2026-05-01 13:11 48.36106 11.79477 1478 ft 10 kts 173°
2026-05-01 13:11 48.36044 11.79487 1477 ft 8 kts 173°
2026-05-01 13:12 48.35992 11.79496 1475 ft 7 kts 173°
2026-05-01 13:12 48.35964 11.79501 1484 ft 0 kts 173°
2026-05-01 13:12 48.35947 11.79502 1482 ft 8 kts 182°
2026-05-01 13:12 48.35896 11.79413 1476 ft 13 kts 238°
2026-05-01 13:13 48.35822 11.79390 1482 ft 11 kts 173°
2026-05-01 13:13 48.35746 11.79403 1485 ft 13 kts 173°
2026-05-01 13:13 48.35637 11.79422 1482 ft 17 kts 173°
2026-05-01 13:13 48.35510 11.79445 1485 ft 19 kts 174°
2026-05-01 13:14 48.35372 11.79468 1485 ft 21 kts 173°
2026-05-01 13:14 48.35228 11.79493 1479 ft 21 kts 173°
2026-05-01 13:14 48.35106 11.79514 1482 ft 10 kts 173°
2026-05-01 13:14 48.35067 11.79489 1471 ft 6 kts 250°
2026-05-01 13:15 48.35063 11.79437 1475 ft 5 kts 264°
2026-05-01 13:15 48.35059 11.79394 1477 ft 4 kts 263°
2026-05-01 13:15 48.35058 11.79379 1485 ft 0 kts 263°